Tracking 18945 objects as of 21-Jan-2018
HD Live streaming from Space Station
objects crossing your sky now

FENGYUN 1C DEB

Track FENGYUN 1C DEB now!
10-day predictions


NORAD ID: 36184
Int'l Code: 1999-025DTH
Perigee: 805.5 km
Apogee: 1,014.7 km
Inclination: 98.6 °
Period: 103.1 minutes
Semi major axis: 7281 km
RCS: 0.0137 m2 (small)
Launch date: May 10, 1999
Source: People's Republic of China (PRC)
Launch site: Taiyaun Space Center, China (TSC)

Note: This is SATELLITE DEBRIS
aabbcc
Your satellite tracking list
Your tracking list is empty




NASA's NSSDC Master Catalog

Two Line Element Set (TLE):
1 36184U 99025DTH 18018.09422948 +.00000087 +00000-0 +82536-4 0  9996
2 36184 098.6320 141.0328 0143631 138.1759 223.0487 13.97349728221210
Source of the keplerian elements: AFSPC